THORAD AGENA D DEB, 4145

Orbit data source: Space-Track

THORAD AGENA D DEB, 4145 is space debris in LEO originally from a launch on Tue, 30 Sep 1969 UTC launched from the Air Force Western Test Range (AFWTR). Debris objects in space refer to the collection of defunct objects orbiting the Earth. Examples of debris include non-operational satellites, rocket bodies, and fragments generated from explosions, collisions, or faulty payload assembly.

Loading next visibility...
Identifier
4145, 1969-082P
Orbit
LEO
Country
Flag of USUS
Related business
Manufacturer
Unknown
Mission
Spacecraft
Bus & Motor
Unknown
Mass
Unknown
Launch date (UTC)
1969-09-30 (57 years ago)
Launch vehicle
Unknown
Launch site
Air Force Western Test Range (AFWTR)
Object type
Payload
Rocket body
Debris
Shape & HBR
Unknown shape, 0.2 m
Radar Cross Section
Medium (>0.1 m² and <1 m²)

Expand to show TLE details & history
Last TLE update: 10 hours ago

TLE from 10 hours ago
0 THORAD AGENA D DEB
1 04145U 69082P   26093.91598701  .00000443  00000-0  26832-3 0  9994
2 04145  70.0580 310.2200 0059766 355.6874   4.3717 14.11742445907242
Epoch: 2026-04-03T21:59Z
TLE epoch observation values (Epoch: 2026-04-03T21:59:01.277Z)
Latitude
-0.00002°
Longitude
148.22141°
Altitude
812.65 km
Speed
7.469 km/s
True Right ascension
20h 40m 52s
True Declination
0° 00' 00"
Sunlit
Object was in daylight at epoch
Visualization orbit readout
Latitude
Unknown
Longitude
Unknown
Altitude
Unknown
Speed
Unknown
Apparent Right ascension
Unknown
Apparent Declination
Unknown
Sunlit
N/A
Visualization observer readout
Local Sidereal Time
13:30:44
Azimuth
Unknown
Elevation
Unknown
Doppler factor
Unknown
Orbital elements
Apogee altitude
894.646 km
Perigee altitude
808.229 km
Semi-major axis
7,229.575 km
Eccentricity
0.00598
Inclination
70.058°
RAAN
310.22°
Arg. of periapsis
355.6874°
True anomaly
4.4243°
Mean anomaly
4.3717°
Eccentric anomaly
4.39796°
Mean motion
3.53081 °/min
Orbital period
101.96 mins
BSTAR
0.00026832
Loading maneuver chart data...
Computing Atmospheric mass density...

Documentation

Showing up to 5 results
|